Pensacola - Santa Rosa Island Weather Center

Moon Phase Calendar



Online Cameras

 


      

Current Conditions in Tiger Point
10/27/2020 12:23:56 PM

80°F
Feels Like 82
Clouds
Humidity
78%
Pressure
30.03"
Wind
11.4 mph (ESE)
Dew Point
72°F
UV Index
7/10 (High)
Visibility
6 mi

Hourly Forecast

Date & Time Tue, Oct 27
12:00 PM
Tue, Oct 27
1:00 PM
Tue, Oct 27
2:00 PM
Tue, Oct 27
3:00 PM
Tue, Oct 27
4:00 PM
Tue, Oct 27
5:00 PM
Tue, Oct 27
6:00 PM
Tue, Oct 27
7:00 PM
Tue, Oct 27
8:00 PM
Tue, Oct 27
9:00 PM
Tue, Oct 27
10:00 PM
Tue, Oct 27
11:00 PM
Wed, Oct 28
12:00 AM
Wed, Oct 28
1:00 AM
Wed, Oct 28
2:00 AM
Wed, Oct 28
3:00 AM
Wed, Oct 28
4:00 AM
Wed, Oct 28
5:00 AM
Wed, Oct 28
6:00 AM
Wed, Oct 28
7:00 AM
Wed, Oct 28
8:00 AM
Wed, Oct 28
9:00 AM
Wed, Oct 28
10:00 AM
Wed, Oct 28
11:00 AM
Wed, Oct 28
12:00 PM
Wed, Oct 28
1:00 PM
Wed, Oct 28
2:00 PM
Wed, Oct 28
3:00 PM
Wed, Oct 28
4:00 PM
Wed, Oct 28
5:00 PM
Wed, Oct 28
6:00 PM
Wed, Oct 28
7:00 PM
Wed, Oct 28
8:00 PM
Wed, Oct 28
9:00 PM
Wed, Oct 28
10:00 PM
Wed, Oct 28
11:00 PM
Thu, Oct 29
12:00 AM
Thu, Oct 29
1:00 AM
Thu, Oct 29
2:00 AM
Thu, Oct 29
3:00 AM
Thu, Oct 29
4:00 AM
Thu, Oct 29
5:00 AM
Thu, Oct 29
6:00 AM
Thu, Oct 29
7:00 AM
Thu, Oct 29
8:00 AM
Thu, Oct 29
9:00 AM
Thu, Oct 29
10:00 AM
Thu, Oct 29
11:00 AM
Condition
Clouds

Clouds

Clouds

Rain

Rain

Rain

Rain

Rain

Rain

Rain

Rain

Rain

Clouds

Clouds

Clouds

Clouds

Clouds

Clouds

Clouds

Rain

Rain

Rain

Rain

Rain

Rain

Rain

Rain

Rain

Rain

Rain

Rain

Rain

Rain

Rain

Rain

Rain

Rain

Rain

Rain

Rain

Rain

Rain

Rain

Rain

Rain

Clouds

Clouds

Clouds
Temperature 80°F80°F81°F80°F80°F79°F78°F77°F77°F77°F77°F77°F77°F77°F77°F76°F76°F76°F76°F76°F78°F79°F80°F80°F80°F80°F81°F80°F80°F79°F78°F78°F79°F79°F79°F79°F79°F79°F79°F78°F78°F77°F77°F77°F77°F78°F79°F77°F
Feels Like 81°F81°F82°F82°F82°F81°F81°F81°F81°F81°F80°F80°F80°F80°F79°F78°F78°F78°F79°F79°F80°F81°F81°F80°F79°F78°F78°F78°F77°F76°F75°F75°F73°F72°F71°F70°F70°F71°F72°F74°F76°F77°F79°F79°F80°F80°F78°F74°F
Cloudiness 90%80%62%71%62%63%64%63%35%36%57%68%74%79%100%97%94%94%96%94%100%100%100%100%100%100%100%100%100%100%100%100%100%100%100%100%100%100%100%100%100%100%100%93%15%14%25%43%
Visibility 6 mi6 mi6 mi6 mi6 mi6 mi6 mi6 mi6 mi6 mi6 mi6 mi6 mi6 mi6 mi6 mi6 mi6 mi6 mi6 mi6 mi6 mi6 mi6 mi6 mi6 mi6 mi6 mi6 mi6 mi6 mi6 mi6 mi6 mi6 mi6 mi6 mi6 mi6 mi6 mi6 mi6 mi6 mi6 mi6 mi6 mi6 mi6 mi
Precipitation 31%32%72%88%89%97%100%100%60%62%64%70%71%71%14%17%18%20%19%25%34%38%53%62%70%72%48%68%79%86%94%94%98%100%100%100%100%100%97%99%100%100%100%99%45%41%37%36%
Humidity 78%76%77%80%80%83%86%87%86%86%86%88%88%87%87%88%89%89%89%89%87%83%83%80%81%81%79%81%82%85%87%87%86%85%85%84%84%84%85%87%87%88%88%90%89%85%81%77%
Dew Point 72°F72°F73°F73°F73°F74°F73°F73°F73°F73°F73°F74°F73°F73°F73°F73°F73°F73°F73°F73°F73°F74°F74°F74°F74°F74°F74°F74°F74°F74°F74°F74°F74°F74°F74°F74°F74°F74°F74°F74°F74°F74°F74°F74°F74°F74°F73°F70°F
Pressure 30.03"30.03"30"29.97"29.97"29.97"29.97"30"30"30.03"30.03"30.03"30"30"29.97"29.97"29.94"29.94"29.94"29.94"29.94"29.97"29.94"29.94"29.91"29.91"29.88"29.85"29.83"29.8"29.8"29.77"29.74"29.71"29.68"29.65"29.68"29.68"29.71"29.74"29.74"29.74"29.74"29.74"29.77"29.77"29.8"29.8"
Wind Speed 13.6 mph14 mph14.4 mph14.2 mph14.4 mph13 mph11.2 mph10 mph9.4 mph9.7 mph11.1 mph11.6 mph11.2 mph11.5 mph12.1 mph13.1 mph12.4 mph11.8 mph11.5 mph11 mph11.4 mph13.4 mph14.7 mph17.4 mph19.2 mph20.2 mph21.2 mph20.7 mph22 mph21.8 mph22.8 mph23.7 mph26.5 mph28.3 mph32.2 mph33.4 mph33.9 mph31.9 mph29 mph25 mph20.7 mph17 mph13.9 mph12 mph12.2 mph14.9 mph17.5 mph19.2 mph
Wind
Direction
95°
E
100°
E
111°
ESE
113°
ESE
117°
ESE
118°
ESE
118°
ESE
118°
ESE
118°
ESE
117°
ESE
127°
SE
125°
SE
125°
SE
126°
SE
121°
ESE
113°
ESE
111°
ESE
108°
ESE
106°
ESE
111°
ESE
126°
SE
133°
SE
133°
SE
135°
SE
134°
SE
131°
SE
132°
SE
133°
SE
134°
SE
143°
SE
140°
SE
145°
SE
148°
SSE
158°
SSE
165°
SSE
174°
S
185°
S
197°
SSW
205°
SSW
213°
SSW
220°
SW
223°
SW
227°
SW
232°
SW
237°
WSW
241°
WSW
243°
WSW
248°
WSW

Daily Forecast

Date High Low Precip. Humidity
Today
Oct 27

Rain
80 °F
74 °F
100%
76%
Wednesday
Oct 28

Rain
80 °F
76 °F
100%
81%
Thursday
Oct 29

Rain
79 °F
64 °F
100%
45%
Friday
Oct 30

Clouds
71 °F
58 °F
0%
59%
Saturday
Oct 31

Clouds
74 °F
58 °F
1%
58%
Sunday
Nov 1

Rain
75 °F
64 °F
43%
61%
Monday
Nov 2

Clear
69 °F
50 °F
0%
34%
Tuesday
Nov 3

Clear
71 °F
52 °F
0%
30%
Wednesday
Nov 4

Clear
73 °F
55 °F
0%
51%
Thursday
Nov 5

Clouds
75 °F
62 °F
0%
57%
Friday
Nov 6

Clouds
71 °F
62 °F
0%
65%
Saturday
Nov 7

Clouds
67 °F
62 °F
19%
70%
Sunday
Nov 8

Clouds
70 °F
58 °F
0%
63%
Monday
Nov 9

Clear
74 °F
58 °F
0%
57%
Tuesday
Nov 10

Clouds
75 °F
62 °F
25%
57%
Wednesday
Nov 11

Clear
64 °F
55 °F
0%
52%


Temperature 8-14 Day Outlook



Precipitation 8-14 Day Outlook




Quick Links
Pensacola - Santa Rosa Island News
Pensacola - Santa Rosa Island Photos
Pensacola - Santa Rosa Island Videos




About Us
Contact Us
Site Map
Search Site
Advertise With Us
   
Pensacola.USGulf.info
THE PENSACOLA - SANTA ROSA ISLAND WEBSITE

Copyright 2020, Coastal Town
Privacy    |    Legal